Ogden, UT

9:23 AM MDT on April 27, 2017 (GMT -0600)
Ogden-Hinckley

Weather History for KOGD - March, 2013

Change the Weather History Date:

Monday, March 11, 2013

  Actual Average Record
Temperature  
Mean Temperature 44 °F -  
Max Temperature 54 °F 52 °F 72 °F (1972)
Min Temperature 34 °F 31 °F 10 °F (1948)
Degree Days  
Heating Degree Days 21    
Moisture  
Dew Point 26 °F    
Average Humidity 51    
Maximum Humidity 64    
Minimum Humidity 34    
Precipitation  
Precipitation 0.00 in - - ()
Sea Level Pressure  
Sea Level Pressure 30.19 in    
Wind  
Wind Speed 7 mph (SSW)    
Max Wind Speed 13 mph    
Max Gust Speed 21 mph    
Visibility 10 miles    
Events      
Averages and records for this station are not official NWS values.
T = Trace of Precipitation, MM = Missing Value Source: NWS Daily Summary

Daily Weather History Graph

Daily Weather History Graph

Search for Another Location

Airport or City:

Trip Planner

Search our weather history database for the weather conditions in past years. The results will help you decide how hot, cold, wet, or windy it might be!

Date:

Astronomy

Mar. 11, 2013 Rise Set
Actual Time 7:45 AM MDT 7:30 PM MDT
Civil Twilight 7:18 AM MDT 7:58 PM MDT
Nautical Twilight 6:46 AM MDT 8:30 PM MDT
Astronomical Twilight 6:14 AM MDT 9:02 PM MDT
Moon 7:21 AM MDT (3/11) 7:47 PM MDT (3/11)
Length of Visible Light 12h 39m
Length of Day
11h 44m
Waning Crescent, 0% of the Moon is Illuminated
Mar 11
Waning Crescent
Mar 11
New
Mar 19
First Quarter
Mar 27
Full
Apr 2
Last Quarter

Hourly Weather History & Observations

Time (MDT) Temp. Windchill Dew Point Humidity Pressure Visibility Wind Dir Wind Speed Gust Speed Precip Events Conditions
12:53 AM 34.0 °F 27.2 °F 23.0 °F 64% 30.28 in 10.0 mi South 8.1 mph - N/A   Clear
1:53 AM 34.0 °F 27.2 °F 21.9 °F 61% 30.26 in 10.0 mi South 8.1 mph - N/A   Clear
2:53 AM 34.0 °F 27.2 °F 23.0 °F 64% 30.26 in 10.0 mi South 8.1 mph - N/A   Mostly Cloudy
3:53 AM 34.0 °F 28.0 °F 23.0 °F 64% 30.24 in 10.0 mi South 6.9 mph - N/A   Overcast
4:53 AM 35.1 °F 31.0 °F 24.1 °F 64% 30.23 in 10.0 mi SSE 4.6 mph - N/A   Overcast
5:53 AM 36.0 °F 29.6 °F 24.1 °F 62% 30.22 in 10.0 mi South 8.1 mph - N/A   Overcast
6:53 AM 37.0 °F 32.4 °F 25.0 °F 62% 30.23 in 10.0 mi South 5.8 mph - N/A   Overcast
7:53 AM 37.0 °F - 25.0 °F 62% 30.23 in 10.0 mi Calm Calm - N/A   Overcast
8:53 AM 39.0 °F 33.4 °F 25.0 °F 57% 30.23 in 10.0 mi South 8.1 mph - N/A   Overcast
9:53 AM 41.0 °F 36.4 °F 25.0 °F 53% 30.24 in 10.0 mi South 6.9 mph - N/A   Overcast
10:53 AM 44.1 °F 39.5 °F 25.0 °F 47% 30.23 in 10.0 mi South 8.1 mph - N/A   Overcast
11:53 AM 46.9 °F - 25.0 °F 42% 30.22 in 10.0 mi South 9.2 mph - N/A   Mostly Cloudy
12:53 PM 50.0 °F - 23.0 °F 35% 30.21 in 10.0 mi SW 8.1 mph - N/A   Mostly Cloudy
1:53 PM 50.0 °F - 23.0 °F 35% 30.19 in 10.0 mi Variable 3.5 mph - N/A   Overcast
2:53 PM 53.1 °F - 25.0 °F 34% 30.16 in 10.0 mi West 12.7 mph 20.7 mph N/A   Mostly Cloudy
3:53 PM 53.1 °F - 25.0 °F 34% 30.14 in 10.0 mi WNW 8.1 mph 18.4 mph N/A   Clear
4:53 PM 54.0 °F - 26.1 °F 34% 30.13 in 10.0 mi WNW 9.2 mph 18.4 mph N/A   Mostly Cloudy
5:53 PM 52.0 °F - 27.0 °F 38% 30.12 in 10.0 mi WSW 10.4 mph - N/A   Partly Cloudy
6:53 PM 51.1 °F - 28.0 °F 41% 30.12 in 10.0 mi WSW 5.8 mph - N/A   Mostly Cloudy
7:53 PM 48.0 °F - 28.9 °F 48% 30.13 in 10.0 mi SW 3.5 mph - N/A   Partly Cloudy
8:53 PM 46.9 °F - 30.9 °F 54% 30.13 in 10.0 mi SSW 5.8 mph - N/A   Overcast
9:53 PM 46.9 °F - 30.9 °F 54% 30.14 in 10.0 mi Calm Calm - N/A   Overcast
10:53 PM 46.9 °F - 30.9 °F 54% 30.14 in 10.0 mi Calm Calm - N/A   Overcast
11:53 PM 46.0 °F - 32.0 °F 58% 30.15 in 10.0 mi Calm Calm - N/A   Overcast